DateTimeUTC,F1_A11,F1_S11,BsB_S11,BsG_S11,BsR_S11,BbsB_S11,BbsG_S11,BbsR_S11,BaB_A11,BaG_A11,BaR_A11,Tu_S11,T_S11,Uu_S11,U_S11,P_S11,T1_A11
2021-08-16T12:00:00Z,00000200,20000000,,,,,,,0000.11,0000.42,-000.27,18.8,25.3,08.0,05.4,0673.9,30.9
2021-08-16T12:01:00Z,00000200,20000000,,,,,,,0000.35,0000.16,0000.38,18.8,25.3,08.0,05.4,0673.9,30.9
2021-08-16T12:02:00Z,00000200,20000000,,,,,,,0000.07,0000.12,0000.08,18.8,25.3,08.0,05.4,0673.9,30.9
2021-08-16T12:03:00Z,00000200,60000000,,,,,,,0000.46,0000.56,0000.61,18.8,25.3,08.0,05.4,0673.9,30.9
2021-08-16T12:04:00Z,00000200,40000000,0002.04,0001.44,0000.68,0000.21,0000.40,0000.22,0002.30,0001.79,0001.52,19.0,25.2,08.0,05.5,0674.8,30.9
2021-08-16T12:05:00Z,00000200,00000000,0001.94,0001.36,0000.79,0001.11,0000.31,-000.00,0003.18,0002.82,0001.85,19.0,25.1,08.0,05.5,0674.9,30.9
2021-08-16T12:06:00Z,00000200,00000000,0002.50,0001.56,0000.72,-000.04,0000.36,0000.51,0005.39,0005.38,0004.24,19.1,25.1,08.1,05.6,0674.9,30.9
2021-08-16T12:07:00Z,00000200,00000000,0001.48,0001.20,0001.11,0000.27,0000.41,0000.45,0006.14,0005.45,0004.67,19.1,25.1,08.3,05.8,0674.9,30.9
2021-08-16T12:08:00Z,00000200,00000000,0002.08,0001.73,0001.02,-000.01,0000.27,0000.28,0003.81,0003.18,0002.69,19.1,25.1,08.1,05.6,0674.9,30.9
2021-08-16T12:09:00Z,00000200,00000000,0001.44,0001.78,0001.07,0000.72,0000.28,0000.47,0004.35,0004.28,0003.32,19.1,25.1,08.1,05.7,0674.9,30.9
2021-08-16T12:10:00Z,00000200,00000000,0001.60,0001.39,0001.17,0000.59,0000.34,0000.30,0002.66,0002.43,0001.94,19.1,25.1,08.4,05.8,0674.9,30.9
2021-08-16T12:11:00Z,00000200,00000000,0001.27,0001.46,0000.86,0000.30,-000.07,0000.42,0000.31,0000.50,-000.02,19.1,25.1,08.4,05.8,0674.9,30.9
2021-08-16T12:12:00Z,00000200,00000000,0001.48,0001.30,0000.49,0000.57,-000.10,0000.15,0000.57,0000.05,0000.40,19.1,25.1,08.2,05.7,0674.9,30.9
2021-08-16T12:13:00Z,00000200,00000000,0001.75,0001.39,0000.73,0000.10,0000.18,0000.22,0000.67,0000.96,0000.81,19.1,25.1,08.2,05.7,0674.9,30.9
2021-08-16T12:14:00Z,00000200,00000000,0002.40,0001.09,0000.56,0000.28,0000.46,0000.21,0000.21,0000.01,-000.18,19.1,25.1,08.3,05.8,0675.0,30.9
2021-08-16T12:15:00Z,00000200,00000000,0001.60,0001.38,0000.88,0000.59,0000.34,0000.35,0000.98,0000.92,0000.85,19.1,25.1,08.3,05.8,0675.0,30.9
2021-08-16T12:16:00Z,00000200,00000000,0002.14,0001.24,0000.57,0000.01,0000.16,0000.16,-000.27,0000.11,-000.43,19.1,25.1,08.1,05.7,0675.0,30.9
2021-08-16T12:17:00Z,00000200,00000000,0001.38,0001.09,0000.67,-000.47,0000.39,-000.15,0000.20,-000.29,0000.65,19.1,25.1,08.0,05.6,0674.9,30.9
2021-08-16T12:18:00Z,00000200,00000000,0002.22,0001.37,0000.55,-000.13,0000.28,0000.30,0000.44,0000.54,-000.54,19.1,25.1,08.0,05.6,0675.0,30.9
2021-08-16T12:19:00Z,00000200,00000000,0001.18,0001.32,0001.17,0000.48,-000.13,0000.51,0000.47,0000.87,0000.94,19.2,25.1,08.0,05.6,0675.0,30.9
2021-08-16T12:20:00Z,00000200,00000000,0001.35,0001.23,0000.70,0000.21,0000.20,0000.23,0000.90,0000.68,0000.67,19.1,25.1,08.3,05.8,0675.0,30.9
2021-08-16T12:21:00Z,00000200,00000000,0000.47,0000.99,0000.49,-000.02,0000.31,0000.25,0000.04,-000.78,-000.44,19.2,25.1,08.1,05.6,0675.0,30.9
2021-08-16T12:22:00Z,00000200,00000000,0001.56,0001.26,0000.85,0000.03,0000.43,0000.07,0000.06,0000.74,0000.44,19.2,25.1,08.0,05.6,0675.0,30.9
2021-08-16T12:23:00Z,00000200,00000000,0002.03,0001.43,0000.67,-000.93,-000.01,0000.01,0000.39,0000.11,0000.26,19.2,25.1,08.1,05.6,0675.0,30.9
2021-08-16T12:24:00Z,00000200,00000000,0001.83,0001.28,0000.75,0000.40,0000.56,-000.13,0000.46,0000.65,0000.35,19.2,25.1,08.1,05.6,0675.0,30.9
2021-08-16T12:25:00Z,00000200,00000000,0001.55,0001.28,0000.58,0000.33,-000.19,-000.09,0000.37,0000.19,0000.11,19.2,25.1,08.0,05.6,0675.0,30.9
2021-08-16T12:26:00Z,00000200,00000000,0001.49,0001.27,0000.56,0000.50,0000.33,0000.17,0000.26,0000.12,-000.07,19.2,25.1,08.1,05.6,0675.0,30.9
2021-08-16T12:27:00Z,00000200,00000000,0001.77,0001.33,0000.89,-000.09,0000.66,0000.28,0000.46,0000.70,0000.59,19.2,25.1,08.5,05.9,0675.0,30.9
2021-08-16T12:28:00Z,00000200,00000000,0001.74,0001.48,0000.96,-000.06,0000.09,0000.18,0001.65,0001.33,0001.37,19.2,25.1,08.2,05.7,0675.0,30.9
2021-08-16T12:29:00Z,00000200,00000000,0002.17,0001.42,0000.69,0000.65,0000.24,-000.25,0002.96,0002.87,0002.09,19.2,25.1,08.1,05.6,0675.0,30.9
2021-08-16T12:30:00Z,00000200,00000000,0001.66,0001.23,0000.62,0000.03,0000.06,0000.36,0001.21,0001.05,0000.69,19.2,25.1,08.0,05.6,0675.0,30.9
2021-08-16T12:31:00Z,00000200,00000000,0001.98,0001.42,0000.71,-000.16,0000.30,0000.06,0000.55,0000.55,0000.75,19.2,25.1,07.9,05.5,0675.0,30.9
2021-08-16T12:32:00Z,00000200,00000000,0002.63,0001.54,0000.70,0000.30,0000.30,-000.02,0000.19,0000.36,0000.12,19.2,25.2,08.0,05.6,0675.0,30.9
2021-08-16T12:33:00Z,00000200,00000000,0001.24,0001.18,0000.71,-000.00,0000.33,0000.07,0000.20,0000.05,-000.28,19.2,25.2,07.8,05.5,0675.0,30.9
2021-08-16T12:34:00Z,00000200,00000000,0001.73,0001.24,0000.81,0000.41,0000.51,0000.40,0000.25,0000.17,0000.03,19.3,25.2,07.8,05.5,0675.0,30.9
2021-08-16T12:35:00Z,00000200,00000000,0001.95,0001.27,0000.47,-000.09,0000.23,0000.07,0000.23,-000.12,0000.50,19.3,25.2,07.8,05.5,0675.0,30.9
2021-08-16T12:36:00Z,00000200,00000000,0001.93,0001.37,0000.85,0000.44,0000.10,0000.22,0000.45,0000.90,-000.05,19.3,25.2,07.8,05.4,0675.1,30.9
2021-08-16T12:37:00Z,00000200,00000000,0002.17,0001.32,0000.78,0000.22,0000.39,0000.37,0000.71,0000.23,0000.68,19.3,25.2,07.7,05.4,0675.1,30.9
2021-08-16T12:38:00Z,00000200,00000000,0001.60,0001.39,0000.97,0000.93,0000.38,0000.23,0000.05,0000.41,0000.14,19.3,25.2,07.8,05.4,0675.1,30.9
2021-08-16T12:39:00Z,00000200,00000000,0002.18,0001.21,0000.54,0000.19,0000.45,-000.22,0001.04,0000.85,0000.56,19.3,25.2,07.9,05.5,0675.1,30.9
2021-08-16T12:40:00Z,00000200,00000000,0002.56,0001.32,0000.82,0000.18,0000.26,0000.31,0000.51,0000.49,0000.51,19.3,25.2,08.3,05.8,0675.1,30.9
2021-08-16T12:41:00Z,00000200,00000000,0001.39,0001.39,0001.24,0000.18,-000.02,0000.47,0000.08,0000.11,0000.13,19.3,25.2,08.4,05.9,0675.1,30.9
2021-08-16T12:42:00Z,00000200,00000000,0001.99,0001.30,0000.84,-000.02,0000.44,-000.07,0000.08,0000.19,0000.01,19.3,25.2,08.0,05.6,0675.1,30.9
2021-08-16T12:43:00Z,00000200,00000000,0001.98,0001.05,0000.49,0000.12,0000.44,0000.28,0000.13,-000.16,0000.15,19.3,25.2,07.8,05.5,0675.1,30.9
2021-08-16T12:44:00Z,00000200,00000000,0002.10,0001.38,0000.98,0000.09,0000.11,0000.25,0000.71,0000.73,0000.28,19.3,25.2,07.8,05.5,0675.1,30.9
2021-08-16T12:45:00Z,00000200,00000000,0001.78,0001.18,0000.84,-000.03,0000.44,-000.01,0000.31,0000.16,0000.12,19.3,25.2,07.9,05.5,0675.1,30.9
2021-08-16T12:46:00Z,00000200,00000000,0002.02,0001.31,0000.77,-000.25,0000.23,-000.15,0000.09,0000.34,0000.71,19.3,25.2,07.8,05.5,0675.1,30.9
2021-08-16T12:47:00Z,00000200,00000000,0001.79,0000.79,0000.58,0000.42,0000.05,0000.44,0000.51,0000.29,0000.01,19.4,25.2,07.8,05.4,0675.1,30.9
2021-08-16T12:48:00Z,00000200,00000000,0000.60,0000.77,0000.59,-000.04,0000.38,0000.25,0000.37,0000.51,0000.29,19.4,25.2,07.8,05.4,0675.1,30.9
2021-08-16T12:49:00Z,00000200,00000000,0000.94,0000.88,0000.63,-000.09,0000.26,0000.30,0000.16,-000.57,0000.16,19.4,25.2,07.8,05.4,0675.1,30.9
2021-08-16T12:50:00Z,00000200,00000000,0001.38,0000.81,0000.77,0000.10,0000.40,0000.05,0000.13,0000.44,-000.07,19.4,25.2,07.8,05.4,0675.1,30.9
2021-08-16T12:51:00Z,00000200,00000000,0001.09,0001.15,0000.61,0000.51,0000.38,0000.27,0000.53,0000.51,0000.44,19.4,25.2,07.8,05.5,0675.1,30.9
2021-08-16T12:52:00Z,00000200,00000000,0001.65,0001.38,0000.65,0000.21,0000.19,0000.28,0000.33,0000.84,0000.16,19.4,25.2,07.9,05.5,0675.1,30.9
2021-08-16T12:53:00Z,00000200,00000000,0001.91,0001.22,0000.72,0000.12,0000.15,0000.12,0000.77,0000.50,0000.42,19.4,25.2,07.8,05.4,0675.1,30.9
2021-08-16T12:54:00Z,00000200,00000000,0001.25,0001.30,0000.85,0000.60,0000.32,0000.09,0000.34,0000.18,0000.39,19.4,25.2,08.0,05.6,0675.1,30.9
2021-08-16T12:55:00Z,00000200,00000000,0001.29,0001.08,0000.49,0001.07,0000.22,0000.02,-000.36,-000.32,-000.46,19.4,25.3,07.8,05.5,0675.2,30.9
2021-08-16T12:56:00Z,00000200,00000000,0001.95,0001.39,0000.89,0000.12,0000.44,0000.24,0000.56,0000.35,0000.62,19.4,25.3,07.8,05.4,0675.1,31.0
2021-08-16T12:57:00Z,00000200,40000000,,,,,,,0000.37,0000.40,0000.19,19.4,25.3,08.2,05.7,0675.2,30.9
2021-08-16T12:58:00Z,00000200,60000000,,,,,,,-000.40,-000.10,-000.07,19.2,25.4,07.9,05.4,0674.2,30.9
2021-08-16T12:59:00Z,00000200,20000000,,,,,,,-000.39,-000.59,-000.23,19.2,25.5,07.9,05.4,0674.2,30.9
